This demonstration page uses our WeatherBlox Daily Observations layout. Learn more.

Left ArrowRight Arrow

38.20091, -84.87328

Hourly Observations for September 16, 2021

Temp ( °F °C ) Dew Point ( °F °C ) Humidity (%) Winds ( mph kmh ) Pressure ( in mb ) Visibility ( mi km ) Precip ( " mm )
12:06 am 00:06 Cloudy with Fog 66 18.9 66 18.9 100 100 Calm 30.02 1017 0 0 0.00 0.00
12:42 am 00:42 Cloudy with Fog 68 20 68 20 100 100 Calm 30.03 1017 1 1 0.00 0.00
12:50 am 00:50 Cloudy with Mist and Fog 68 20 68 20 100 100 N 3 6 30.03 1017 1 2 0.00 0.00
12:53 am 00:53 Cloudy with Mist and Fog 68 20 67 19.4 96 96 Calm 30.02 1017 2 3 0.00 0.00
1:01 am 01:01 Cloudy with Mist and Fog 68 20 68 20 100 100 Calm 30.03 1017 5 8 0.00 0.00
1:40 am 01:40 Cloudy with Mist and Fog 68 20 68 20 100 100 Calm 30.02 1017 6 10 0.00 0.00
1:53 am 01:53 Cloudy with Mist and Fog 69 20.6 68 20 96 96 Calm 30.02 1017 5 8 0.00 0.00
2:53 am 02:53 Cloudy with Mist and Fog 68 20 67 19.4 96 96 Calm 30.02 1017 5 8 0.00 0.00
3:02 am 03:02 Cloudy with Mist and Fog 68 20 67 19.4 96 96 ENE 3 6 30.02 1017 5 8 0.00 0.00
3:13 am 03:13 Cloudy with Mist and Fog 68 20 67 19.4 96 96 E 5 7 30.02 1017 2 3 0.00 0.00
3:23 am 03:23 Mostly Cloudy with Mist and Fog 68 20 67 19.4 96 96 E 6 9 30.02 1017 1 2 0.00 0.00
3:30 am 03:30 Cloudy with Mist and Fog 68 20 67 19.4 96 96 E 5 7 30.02 1017 2 3 0.00 0.00
3:38 am 03:38 Cloudy with Mist and Fog 68 20 67 19.4 96 96 ENE 5 7 30.02 1017 3 5 0.00 0.00
3:53 am 03:53 Cloudy with Mist and Fog 68 20 67 19.4 96 96 ENE 6 9 30.01 1016 2 2 0.00 0.00
3:56 am 03:56 Cloudy with Mist and Fog 68 20 67 19.4 96 96 E 5 7 30.02 1017 1 1 0.00 0.00
4:08 am 04:08 Mostly Cloudy with Fog 67 19.4 67 19.4 100 100 ENE 3 6 30.01 1016 0 0 0.00 0.00
4:53 am 04:53 Mostly Cloudy with Fog 67 19.4 66 18.9 97 97 ENE 5 7 30.01 1016 0 0 0.00 0.00
5:33 am 05:33 Mostly Cloudy with Fog 66 18.9 66 18.9 100 100 E 3 6 30.03 1017 1 1 0.00 0.00
5:53 am 05:53 Mostly Cloudy with Fog 66 18.9 65 18.3 96 96 NE 3 6 30.03 1017 0 0 0.00 0.00
6:25 am 06:25 Mostly Cloudy with Fog 66 18.9 65 18.3 96 96 Calm 30.04 1017 1 1 0.00 0.00
6:53 am 06:53 Mostly Cloudy with Fog 65 18.3 65 18.3 100 100 E 3 6 30.04 1017 0 0 0.00 0.00
7:53 am 07:53 Mostly Cloudy with Fog 65 18.3 64 17.8 97 97 ESE 5 7 30.06 1018 0 0 0.00 0.00
8:26 am 08:26 Mostly Cloudy with Fog 65 18.3 64 17.8 97 97 ESE 6 9 30.08 1018 1 1 0.00 0.00
8:35 am 08:35 Mostly Cloudy with Fog 64 17.8 64 17.8 100 100 ESE 3 6 30.09 1019 0 0 0.00 0.00
8:49 am 08:49 Mostly Cloudy with Mist and Fog 64 18 64 18 100 100 E 5 7 30.09 1019 1 1 0.00 0.00
8:53 am 08:53 Mostly Cloudy with Mist and Fog 65 18.3 64 17.8 97 97 ESE 3 6 30.08 1019 1 1 0.00 0.00
8:56 am 08:56 Cloudy with Mist and Fog 65 18.3 65 18.3 100 100 VRB 3 6 30.09 1019 1 2 0.00 0.00
9:11 am 09:11 Cloudy with Mist and Fog 65 18.3 65 18.3 100 100 ENE 3 6 30.09 1019 1 2 0.00 0.00
9:21 am 09:21 Cloudy with Mist and Fog 65 18.3 65 18.3 100 100 ENE 3 6 30.09 1019 2 3 0.00 0.00
9:27 am 09:27 Cloudy with Mist and Fog 65 18.3 65 18.3 100 100 ENE 5 7 30.09 1019 3 5 0.00 0.00
9:53 am 09:53 Cloudy 66 18.9 65 18.3 96 96 E 3 6 30.09 1019 10 16 0.00 0.00
10:28 am 10:28 Cloudy 68 20 66 18.9 93 93 ESE 5 7 30.09 1019 10 16 0.00 0.00
10:53 am 10:53 Mostly Cloudy 70 21.1 67 19.4 90 90 ESE 6 9 30.10 1019 10 16 0.00 0.00
11:06 am 11:06 Partly Cloudy 70 21.1 66 18.9 87 87 ESE 6 9 30.10 1019 10 16 0.00 0.00
11:53 am 11:53 Sunny 74 23.3 67 19.4 79 79 VRB 3 6 30.09 1019 10 16 0.00 0.00
12:53 pm 12:53 Sunny 79 26.1 67 19.4 67 67 E 6 9 30.08 1019 10 16 0.00 0.00
1:53 pm 13:53 Sunny 82 27.8 67 19.4 60 60 ENE 5 7 30.06 1018 10 16 0.00 0.00
2:53 pm 14:53 Mostly Cloudy 82 27.8 67 19.4 60 60 E 7 11 30.04 1017 10 16 0.00 0.00
3:53 pm 15:53 Sunny 83 28.3 67 19.4 59 59 ESE 5 7 30.03 1017 10 16 0.00 0.00
4:53 pm 16:53 Mostly Cloudy 84 28.9 66 18.9 55 55 VRB 5 7 30.02 1017 10 16 0.00 0.00
5:53 pm 17:53 Mostly Sunny 81 27.2 66 18.9 61 61 E 6 9 30.02 1017 10 16 0.00 0.00
6:53 pm 18:53 Sunny 82 27.8 66 18.9 58 58 ENE 5 7 30.02 1017 10 16 0.00 0.00
7:53 pm 19:53 Clear 79 26.1 67 19.4 67 67 Calm 30.03 1017 10 16 0.00 0.00
8:53 pm 20:53 Clear 74 23.3 67 19.4 79 79 E 5 7 30.05 1018 10 16 0.00 0.00
9:53 pm 21:53 Clear 74 23.3 67 19.4 79 79 ENE 3 6 30.07 1018 10 16 0.00 0.00
10:53 pm 22:53 Clear 72 22.2 67 19.4 84 84 E 6 9 30.07 1018 10 16 0.00 0.00
11:53 pm 23:53 Clear 71 21.7 67 19.4 87 87 E 6 9 30.08 1019 10 16 0.00 0.00

Powered by AerisWeather